When you browse on this site, cookies collect data to enhance your experience and personalize the content and advertising you see.
Visit our Privacy Policy to learn more. By continuing to use the site, you agree to this use of cookies and data.
  • In Romania
  • List of Countries
  • For 7 days
  • Water Temperature
  • Weather Map
  • Weather Widgets
  • user-avatar
    Login

    Hourly Weather Świętochłowice

    Today, 7 December, Saturday

    Time Temperature Precipitation Wind Pressure Humidity
    00:00 -3°C° 0 mm 6 mps 734 mmHg 59%
    01:00 -2°C° 0 mm 5 mps 733 mmHg 59%
    02:00 -3°C° 0 mm 6 mps 733 mmHg 59%
    03:00 -3°C° 0 mm 6 mps 732 mmHg 59%
    04:00 -3°C° 0 mm 6 mps 732 mmHg 58%
    05:00 -2°C° 0 mm 7 mps 732 mmHg 59%
    06:00 -2°C° 0 mm 7 mps 732 mmHg 60%
    07:00 -2°C° 0 mm 6 mps 732 mmHg 57%
    08:00 -2°C° 0 mm 7 mps 732 mmHg 63%
    09:00 -1°C° 0 mm 7 mps 732 mmHg 68%
    10:00 -1°C° 0 mm 7 mps 732 mmHg 74%
    11:00 0°C° 0 mm 7 mps 732 mmHg 74%
    12:00 +2°C° 0 mm 7 mps 732 mmHg 75%
    13:00 +3°C° 0 mm 7 mps 732 mmHg 75%
    14:00 +2°C° 0.1 mm 7 mps 732 mmHg 79%
    15:00 +2°C° 0.1 mm 6 mps 732 mmHg 82%
    16:00 +2°C° 0.1 mm 6 mps 732 mmHg 86%
    17:00 +2°C° 0.1 mm 6 mps 732 mmHg 86%
    18:00 +2°C° 0.1 mm 5 mps 732 mmHg 86%
    19:00 +2°C° 0.1 mm 5 mps 733 mmHg 86%
    20:00 +2°C° 0.1 mm 5 mps 733 mmHg 86%
    21:00 +2°C° 0.1 mm 5 mps 733 mmHg 86%
    22:00 +3°C° 0.1 mm 5 mps 733 mmHg 86%
    23:00 +3°C° 0 mm 5 mps 733 mmHg 85%

    Tomorrow, 8 December, Sunday

    Time Temperature Precipitation Wind Pressure Humidity
    00:00 +3°C° 0 mm 4 mps 734 mmHg 85%
    01:00 +3°C° 0 mm 4 mps 734 mmHg 84%
    02:00 +3°C° 0 mm 4 mps 734 mmHg 85%
    03:00 +3°C° 0 mm 4 mps 733 mmHg 85%
    04:00 +3°C° 0 mm 4 mps 733 mmHg 85%
    05:00 +3°C° 0 mm 4 mps 733 mmHg 84%
    06:00 +3°C° 0 mm 4 mps 734 mmHg 84%
    07:00 +2°C° 0 mm 5 mps 734 mmHg 83%
    08:00 +2°C° 0 mm 5 mps 734 mmHg 81%
    09:00 +3°C° 0 mm 6 mps 733 mmHg 79%
    10:00 +3°C° 0 mm 6 mps 733 mmHg 77%
    11:00 +4°C° 0 mm 7 mps 733 mmHg 74%
    12:00 +4°C° 0 mm 7 mps 732 mmHg 72%
    13:00 +5°C° 0 mm 7 mps 731 mmHg 70%
    14:00 +4°C° 0 mm 7 mps 731 mmHg 71%
    15:00 +4°C° 0 mm 7 mps 730 mmHg 73%
    16:00 +4°C° 0 mm 6 mps 730 mmHg 74%
    17:00 +4°C° 0 mm 6 mps 730 mmHg 71%
    18:00 +4°C° 0 mm 7 mps 730 mmHg 67%
    19:00 +4°C° 0 mm 7 mps 730 mmHg 64%
    20:00 +4°C° 0.4 mm 7 mps 729 mmHg 68%
    21:00 +4°C° 0.4 mm 7 mps 729 mmHg 72%
    22:00 +4°C° 0.4 mm 7 mps 729 mmHg 76%
    23:00 +4°C° 0.6 mm 7 mps 728 mmHg 77%

    Day after tomorrow, 9 December, Monday

    Time Temperature Precipitation Wind Pressure Humidity
    00:00 +4°C° 0.6 mm 6 mps 728 mmHg 78%
    01:00 +4°C° 0.6 mm 6 mps 728 mmHg 80%
    02:00 +4°C° 0.1 mm 6 mps 727 mmHg 80%
    03:00 +4°C° 0.1 mm 6 mps 727 mmHg 81%
    04:00 +4°C° 0.1 mm 6 mps 726 mmHg 81%
    05:00 +4°C° 0 mm 6 mps 726 mmHg 80%
    06:00 +4°C° 0 mm 6 mps 726 mmHg 79%
    07:00 +4°C° 0 mm 6 mps 726 mmHg 77%
    08:00 +4°C° 0.1 mm 6 mps 726 mmHg 76%
    09:00 +4°C° 0.1 mm 6 mps 727 mmHg 75%
    10:00 +5°C° 0.1 mm 6 mps 727 mmHg 74%
    11:00 +5°C° 0 mm 6 mps 727 mmHg 71%
    12:00 +5°C° 0 mm 6 mps 727 mmHg 67%
    13:00 +5°C° 0 mm 6 mps 727 mmHg 64%
    14:00 +5°C° 0 mm 6 mps 727 mmHg 66%
    15:00 +4°C° 0 mm 6 mps 726 mmHg 68%
    16:00 +5°C° 0 mm 5 mps 726 mmHg 70%
    17:00 +5°C° 0 mm 5 mps 726 mmHg 70%
    18:00 +5°C° 0 mm 5 mps 727 mmHg 71%
    19:00 +3°C° 0 mm 5 mps 727 mmHg 72%
    20:00 +3°C° 0 mm 5 mps 727 mmHg 73%
    21:00 +3°C° 0 mm 5 mps 727 mmHg 73%
    22:00 +3°C° 0 mm 5 mps 727 mmHg 74%
    23:00 +2°C° 0 mm 5 mps 728 mmHg 77%

    10 December, Tuesday

    Time Temperature Precipitation Wind Pressure Humidity
    00:00 +2°C° 0 mm 6 mps 728 mmHg 79%
    01:00 +2°C° 0 mm 6 mps 728 mmHg 82%
    02:00 +2°C° 0 mm 6 mps 728 mmHg 80%
    03:00 +2°C° 0 mm 5 mps 729 mmHg 78%
    04:00 +1°C° 0 mm 5 mps 729 mmHg 76%
    05:00 +1°C° 0.1 mm 6 mps 730 mmHg 77%
    06:00 +1°C° 0.1 mm 6 mps 731 mmHg 78%
    07:00 +1°C° 0.1 mm 6 mps 732 mmHg 79%
    08:00 +1°C° 0 mm 6 mps 732 mmHg 74%
    09:00 +1°C° 0 mm 6 mps 733 mmHg 69%
    10:00 +1°C° 0 mm 5 mps 734 mmHg 63%
    11:00 +1°C° 0 mm 5 mps 734 mmHg 70%
    12:00 +1°C° 0 mm 5 mps 735 mmHg 77%
    13:00 0°C° 0 mm 5 mps 735 mmHg 83%
    14:00 0°C° 0.2 mm 5 mps 736 mmHg 87%
    15:00 0°C° 0.2 mm 5 mps 736 mmHg 91%
    16:00 0°C° 0.2 mm 5 mps 737 mmHg 95%
    17:00 0°C° 0.2 mm 5 mps 738 mmHg 92%
    18:00 0°C° 0.2 mm 4 mps 739 mmHg 89%
    19:00 0°C° 0.2 mm 4 mps 739 mmHg 86%
    20:00 0°C° 0.1 mm 4 mps 739 mmHg 88%
    21:00 0°C° 0.1 mm 3 mps 740 mmHg 90%
    22:00 0°C° 0.1 mm 3 mps 740 mmHg 92%
    23:00 +1°C° 0 mm 2 mps 740 mmHg 91%

    11 December, Wednesday

    Time Temperature Precipitation Wind Pressure Humidity
    00:00 +1°C° 0 mm 2 mps 740 mmHg 90%
    01:00 +1°C° 0 mm 1 mps 740 mmHg 89%
    02:00 +1°C° 0 mm 1 mps 740 mmHg 89%
    03:00 +1°C° 0 mm 1 mps 740 mmHg 89%
    04:00 0°C° 0 mm 0 mps 740 mmHg 90%
    05:00 +1°C° 0 mm 1 mps 739 mmHg 90%
    06:00 +1°C° 0 mm 1 mps 739 mmHg 90%
    07:00 +1°C° 0 mm 1 mps 739 mmHg 90%
    08:00 -1°C° 0 mm 2 mps 739 mmHg 87%
    09:00 0°C° 0 mm 3 mps 738 mmHg 83%
    10:00 +1°C° 0 mm 3 mps 738 mmHg 80%
    11:00 +1°C° 0 mm 3 mps 738 mmHg 76%
    12:00 +2°C° 0 mm 3 mps 737 mmHg 72%
    13:00 +2°C° 0 mm 3 mps 736 mmHg 67%
    14:00 +3°C° 0 mm 2 mps 736 mmHg 71%
    15:00 +2°C° 0 mm 2 mps 736 mmHg 74%
    16:00 +1°C° 0 mm 2 mps 735 mmHg 77%
    17:00 +1°C° 0 mm 2 mps 735 mmHg 78%
    18:00 +1°C° 0 mm 2 mps 735 mmHg 80%
    19:00 -1°C° 0 mm 2 mps 735 mmHg 81%
    20:00 -1°C° 0 mm 2 mps 734 mmHg 81%
    21:00 -1°C° 0 mm 2 mps 734 mmHg 80%
    22:00 +1°C° 0 mm 1 mps 734 mmHg 80%
    23:00 +1°C° 0 mm 1 mps 734 mmHg 79%

    12 December, Thursday

    Time Temperature Precipitation Wind Pressure Humidity
    00:00 +1°C° 0 mm 1 mps 733 mmHg 78%
    01:00 +1°C° 0 mm 1 mps 733 mmHg 77%
    02:00 +1°C° 0 mm 1 mps 732 mmHg 77%
    03:00 -1°C° 0 mm 2 mps 732 mmHg 76%
    04:00 -1°C° 0 mm 2 mps 732 mmHg 76%
    05:00 +1°C° 0 mm 2 mps 732 mmHg 79%
    06:00 +1°C° 0 mm 2 mps 732 mmHg 82%
    07:00 +1°C° 0 mm 2 mps 731 mmHg 84%
    08:00 +1°C° 0 mm 2 mps 732 mmHg 84%
    09:00 +2°C° 0 mm 2 mps 732 mmHg 83%
    10:00 +2°C° 0 mm 2 mps 732 mmHg 82%
    11:00 +2°C° 0 mm 2 mps 732 mmHg 84%
    12:00 +2°C° 0 mm 2 mps 731 mmHg 86%
    13:00 +3°C° 0 mm 1 mps 731 mmHg 88%
    14:00 +3°C° 0.1 mm 1 mps 731 mmHg 91%
    15:00 +3°C° 0.1 mm 1 mps 731 mmHg 94%
    16:00 +2°C° 0.1 mm 1 mps 731 mmHg 97%
    17:00 +2°C° 0.1 mm 1 mps 731 mmHg 97%
    18:00 +2°C° 0.1 mm 1 mps 731 mmHg 97%
    19:00 +2°C° 0.1 mm 1 mps 731 mmHg 97%
    20:00 +2°C° 0.2 mm 1 mps 731 mmHg 97%
    21:00 +2°C° 0.2 mm 1 mps 731 mmHg 97%
    22:00 +2°C° 0.2 mm 1 mps 730 mmHg 97%
    23:00 +2°C° 0.1 mm 1 mps 730 mmHg 97%
    Show more